User: anonymous   Login
Location: �chenoz-la-M�line
(47.6009°N, 6.1354°E)
Time: 00:09:57
(UTC+00:00)
Language:

Cosmos 1814 Rocket - Orbit

View from above orbital plane
View from above orbital plane
View from above satellite
View from above satellite

Ground track
Ground track

The orbit data is extracted from the following two-line orbital elements,

1 17304U 87006B   21110.84007991  .00000026  00000-0  17344-4 0  9990
2 17304  74.0611  30.4430 0030720 238.5345 121.2806 14.37725020795015
Epoch (UTC): 20 April 2021 20:09:42
Eccentricity: 0.0030720
inclination: 74.0611°
perigee height: 744 km
apogee height: 788 km
right ascension of ascending node: 30.4430°
argument of perigee: 238.5345°
revolutions per day: 14.37725020
mean anomaly at epoch: 121.2806°
orbit number at epoch: 79501

The dashed part of the orbit path shows where the satellite is in the earth's shadow,  

DLR